Location: Jackson
(42.2460°N, 84.4010°W)
Time: 19:30:43
(UTC-04:00)

Courier 1B Rocket - Pass Details

Date: 15 February 2026
Orbit: 920 x 1201 km, 28.2° (Epoch: 12 March)

Event Time Altitude Azimuth Distance (km) Brightness Sun altitude
Rises 23:01:13 0° 247° (WSW) 3,640 - -51.7°
Reaches altitude 10° 23:04:18 10° 234° (SW) 2,732 - -52.1°
Maximum altitude 23:09:27 24° 183° (S) 1,972 - -52.8°
Drops below altitude 10° 23:14:51 10° 133° (SE) 2,890 - -53.4°
Sets 23:18:14 0° 120° (ESE) 3,898 - -53.9°
